Location: Newark
(34.1333°N, 7.9667°W)
Time: 07:28:24
(UTC+00:00)

Envisat - Pass Details

Date: 30 September 2021
Orbit: 764 x 766 km, 98.2° (Epoch: 25 October)

Event Time Altitude Azimuth Distance (km) Brightness Sun altitude
Rises 05:53:28 0° 8° (N) 3,235 6.4 -7.5°
Reaches altitude 10° 05:55:48 10° 5° (N) 2,305 5.6 -7.0°
Maximum altitude 06:00:48 62° 286° (WNW) 855 3.0 -6.0°
Drops below altitude 10° 06:05:47 10° 205° (SSW) 2,291 5.2 -5.0°
Sets 06:08:06 0° 202° (SSW) 3,213 6.0 -4.5°
